Regional Weather Roundup
Issued by NWS Charleston, SC

Current Version | Previous Version | Graphics & Text | Print | Product List | Glossary On
Versions: 1 2 3 4 5 6 7 8 9 10 11 12 13 14 15 16 17 18 19 20 21 22 23 24 25 26 27 28 29 30 31 32 33 34 35 36 37 38 39 40 41 42 43 44 45 46 47 48 49 50
000
ASUS42 KCHS 262211
RWRCHS

REGIONAL WEATHER ROUNDUP
NATIONAL WEATHER SERVICE CHARLESTON SC
500 PM EST THU FEB 26 2015

NOTE: "FAIR" INDICATES FEW OR NO CLOUDS BELOW 12,000 FEET WITH NO
SIGNIFICANT WEATHER AND/OR OBSTRUCTIONS TO VISIBILITY.

NOT ALL STATIONS ARE QUALITY CONTROLLED BY THE NATIONAL
WEATHER SERVICE. USE DATA WITH CAUTION...ESPECIALLY
DEWPOINT OBSERVATIONS.

SCZ027-030-031-034>040-042>050-262300-
...SOUTHEAST SOUTH CAROLINA...

CITY           SKY/WX    TMP DP  RH WIND       PRES   REMARKS
N CHARLESTON   CLOUDY    42  36  79 N14       29.99R
WATERFRONT PRK NOT AVBL
MOUNT PLEASANT LGT RAIN  43  36  75 NW6       29.99R
PINOPOLIS        N/A     43  37  81 VRB9      29.90R
MONCKS CORNER  CLOUDY    43  36  75 N7        29.99R
SUMMERVILLE    CLOUDY    41  37  87 N9        30.00R
BEAUFORT MCAS  CLOUDY    48  38  68 N10       29.98R
BEAUFORT ARPT  CLOUDY    46  41  81 N8        29.98R
HILTON HEAD IS CLOUDY    48  39  71 N9        29.98R
WALTERBORO     CLOUDY    45  39  81 N3        30.00R
ALLENDALE      CLOUDY    46  37  71 VRB6G12   29.99R

...SOUTHERN MIDLANDS AND PEE DEE...

CITY           SKY/WX    TMP DP  RH WIND       PRES   REMARKS
GEORGETOWN     NOT AVBL
KINGSTREE      NOT AVBL
ORANGEBURG     CLOUDY    44  34  67 N6        29.99R
BARNWELL       CLOUDY    46  37  71 CALM      29.99R
AIKEN          CLOUDY    45  36  70 W3        30.00R
MANNING        CLOUDY    43  34  70 N7        29.99R
COLUMBIA       CLOUDY    44  34  67 N3        29.99R
SUMTER         CLOUDY    41  34  76 N8        29.97R
FLORENCE       CLOUDY    41  33  73 N7        29.99R
MYRTLE BEACH   CLOUDY    41  34  75 N12       29.99R
N MYRTLE BEACH CLOUDY    40  34  79 N9        29.97R WCI  34

$$

GAZ063-065-086>088-099>101-113>116-118-119-134>141-150-262300-
...SOUTHEAST GEORGIA...

CITY           SKY/WX    TMP DP  RH WIND       PRES   REMARKS
SAVANNAH ARPT  CLOUDY    49  38  65 NW10      29.98R
HUNTER AAF     CLOUDY    49  39  66 NW9       29.95R
FORT STEWART   CLOUDY    48  38  68 N7        29.96R
STATESBORO     CLOUDY    46  39  77 NW7       29.99R
SYLVANIA       CLOUDY    46  41  81 NW6       29.99R
CLAXTON        CLOUDY    46  41  81 NW6       29.99R

...CSRA...CENTRAL AND FAR SOUTHEAST GEORGIA...

CITY           SKY/WX    TMP DP  RH WIND       PRES   REMARKS
THOMSON        CLOUDY    47  41  81 N3        30.03R
AUGUSTA-BUSH   CLOUDY    46  36  68 N6        29.99R
AUGUSTA-DANIEL CLOUDY    47  36  65 W6        29.99R
SWAINSBORO     CLOUDY    48  32  53 CALM      29.99S
VIDALIA        CLOUDY    46  41  81 N8        29.99R
EASTMAN        CLOUDY    49  40  73 CALM      30.00R
HAZLEHURST     CLOUDY    48  41  75 N3        29.97S
ALMA           CLOUDY    47  38  71 N6        29.97S
WAYCROSS       CLOUDY    51  43  73 N9        29.98R
JESUP          CLOUDY    50  43  76 NW7       29.98R
BAXLEY         CLOUDY    50  39  66 N7        29.97S
BRUNSWICK      CLOUDY    52  41  66 NW3       29.97R
SAINT SIMONS   CLOUDY    53  40  61 N13       29.96R

$$

SCZ027-028-034-036>038-045-046-048>050-GAZ119-141-262300-
...LAKE AND SUPPLEMENTAL COASTAL OBSERVATIONS...

STATION/POSITION TIME  TEMP    WIND        PRES    WAVE   SWELL
                       AIR SEA DIR/SP/G            HT/PER HT/PER/DIR
                 (UTC) (F)     (DEG/KT/KT) (MB)    (FT/S) (FT/S/D)
UPR LAKE MARION  NOT AVBL
WINYAH BAY       2045   40     320/  7     1013.0
LAKE MURRAY      2100   42     130/  2/  4 1014.2R
ACE BASIN NERRS  NOT AVBL
FORT PULASKI     2100   49 49  320/ 10/ 12 1014.4R
SAPELO ISLAND    2100   50     340/  8     1014.0R

$$

ANZ835-935-AMZ111-154-330-350-352-354-370-450-454-472-262300-
...C-MAN AND BUOY OBSERVATIONS...

STATION/POSITION TIME  TEMP    WIND        PRES    WAVE   SWELL
                       AIR SEA DIR/SP/G            HT/PER HT/PER/DIR
                 (UTC) (F)     (DEG/KT/KT) (MB)    (FT/S) (FT/S/D)
BUOY 41004       2150   46 65  350/ 16/ 19 1013.9R   6/11   5/11
BUOY 41008       2150   47 53  350/ 10/ 14 1014.7R   3/ 8   2/140/ 8
FOLLY BEACH CMAN 2200   42     330/  7/  9 1015.8R
CAPERS NEARSHORE NOT AVBL
FRIPP NEARSHORE  2100   47      20/ 10/ 12 1013.7R


STATION/POSITION TIME  TEMP    WIND        PRES    WAVE   SWELL
                       AIR SEA DIR/SP/G            HT/PER HT/PER/DIR
                 (UTC) (F)     (DEG/KT/KT) (MB)    (FT/S) (FT/S/D)
5E ST. MARYS GA  2121      54                N/A     3/11   2/110/11
FRYING PAN BUOY  2150   42 58  340/ 16/ 19 1014.2R   8/10   7/180/10
BUOY 41025       NOT AVBL
CAPE LOOKOUT NC  2200   37     350/ 16/ 19 1013.4R
BUOY 41002       2150   66 70  280/ 19/ 25 1010.3R  15/11  13/240/11
BUOY 41010       2120   68 74  280/ 12/ 16 1012.0R
ST AUGUSTINE FL  2200   53     360/ 12/ 13 1014.3R


$$



USA.gov is the U.S. government's official web portal to all federal, state and local government web resources and services.